Simultaneous Nadir Overpasses (SNOs) Predictions

Prediction of SNOs between AQUA and NOAA-19 Satellite Orbit:

Table of predicted SNOs for the next 14.0 days since TLE Epoch: 11/16/2018
Index Date (AQUA) Time (AQUA) Lat,Lon (AQUA) SZA (AQUA ) Date (NOAA-19) Time (NOAA-19) Lat,Lon (NOAA-19) SZA (NOAA-19 ) Distance(km) Time Diff (sec)
1 11/18/2018 04:13:32 80.67, 79.67 101.28 11/18/2018 04:13:46 80.65, 79.69 101.26 1.97 14
2 11/20/2018 09:47:16 -80.64, 176.49 78.24 11/20/2018 09:47:15 -80.65, 176.45 78.23 1.05 1
3 11/22/2018 15:21:00 80.64, -86.95 102.27 11/22/2018 15:20:48 80.65, -86.89 102.27 1.29 12
4 11/24/2018 20:54:45 -80.65, 9.49 77.25 11/24/2018 20:54:17 -80.64, 9.49 77.25 2.04 28
5 11/24/2018 21:44:11 80.65, 177.19 102.75 11/24/2018 21:45:19 80.65, 177.21 102.73 0.64 68
6 11/27/2018 02:28:28 80.63, 106.33 103.15 11/27/2018 02:27:50 80.65, 106.42 103.17 2.30 38
7 11/27/2018 03:17:56 -80.66, -86.40 76.79 11/27/2018 03:18:47 -80.65, -86.25 76.83 3.16 51
8 11/29/2018 08:02:13 -80.65,-157.29 76.42 11/29/2018 08:01:18 -80.63,-157.20 76.42 2.20 55




NCC Satellite Simultaneous Nadir Overpasses (SNOs) Prediction Service
